User: anonymous   Login
Location: Vancouver
(49.2500°N, 123.1330°W)
Time: 15:21:10
(UTC-08:00)
Language:

BREEZE-M DEB (TANK) - Orbit

View from above orbital plane
View from above orbital plane
View from above satellite
View from above satellite

Ground track
Ground track

The orbit data is extracted from the following two-line orbital elements,

1 27821U 03024B   16041.43038249  .00016260  00000-0  13865-2 0  9994
2 27821  49.6077 355.8862 4978872  14.9554 355.5758  5.70412075252159
Epoch (UTC): 10 February 2016 10:19:45
Eccentricity: 0.4978872
inclination: 49.6077°
perigee height: 265 km
apogee height: 13441 km
right ascension of ascending node: 355.8862°
argument of perigee: 14.9554°
revolutions per day: 5.70412075
mean anomaly at epoch: 355.5758°
orbit number at epoch: 25215

The dashed part of the orbit path shows where the satellite is in the earth's shadow,  

DLR